Вернуться в каталог

FENGYUN 1C DEB

АктивенPO
NORAD 36686·DEBRIS·🇨🇳 China

Запущен May 10, 1999 с Taiyuan Satellite Launch Center

Loading…

Ближайшие Пролёты (ближайшие 24 часа)

TLE

СвежийSource: Space-Track

Эпоха: Sep 14, 2026, 09:38 UTC

1 36686U 99025DZG 26257.40157950  .00003604  00000-0  44224-3 0  9999
2 36686  98.9767 126.2871 0096839 267.2744  91.7378 14.80589816699279

Отслеживайте FENGYUN 1C DEB в реальном времени с AllMySat

Download on the App Store